FW4443 Weather Reports


time (UTC)temp
C
wind
direction
speed
KPH
gust
KPH
rain 1hr
cm
rain 24hr
cm
rain mn
cm
humidity
%
barometer
mb
20260506185918 26 111 1.6 16.1 0.00 0.00 0.00 25 1017.4
20260506185556 26 282 3.2 16.1 0.00 0.00 0.00 25 1017.4
20260506185239 26 111 4.8 16.1 0.00 0.00 0.00 24 1017.5
20260506184916 26 155 6.4 16.1 0.00 0.00 0.00 28 1017.5
20260506184557 26 183 6.4 16.1 0.00 0.00 0.00 24 1017.5
20260506184242 26 152 6.4 16.1 0.00 0.00 0.00 24 1017.6
20260506183926 27 157 6.4 16.1 0.00 0.00 0.00 26 1017.5
20260506183606 26 122 4.8 14.5 0.00 0.00 0.00 24 1017.5
20260506183239 25 167 4.8 11.3 0.00 0.00 0.00 25 1017.6
20260506182613 26 121 4.8 11.3 0.00 0.00 0.00 25 1017.5
20260506182253 25 133 3.2 11.3 0.00 0.00 0.00 27 1017.5
20260506181932 25 209 3.2 11.3 0.00 0.00 0.00 24 1017.6
20260506181307 26 105 4.8 11.3 0.00 0.00 0.00 25 1017.6
20260506180949 26 57 4.8 12.9 0.00 0.00 0.00 27 1017.6
20260506180628 26 30 4.8 12.9 0.00 0.00 0.00 26 1017.6
20260506180310 25 156 3.2 12.9 0.00 0.00 0.00 26 1017.6
20260506175952 25 147 4.8 12.9 0.00 0.00 0.00 25 1017.6
20260506175633 25 121 4.8 12.9 0.00 0.00 0.00 26 1017.5
20260506175307 25 153 4.8 12.9 0.00 0.00 0.00 26 1017.6
20260506174645 25 13 3.2 9.7 0.00 0.00 0.00 28 1017.6
20260506174020 25 65 1.6 9.7 0.00 0.00 0.00 29 1017.6
20260506173658 25 118 1.6 9.7 0.00 0.00 0.00 27 1017.6
20260506173043 25 105 3.2 9.7 0.00 0.00 0.00 28 1017.6
20260506172727 25 82 3.2 9.7 0.00 0.00 0.00 28 1017.6
20260506172408 24 20 3.2 9.7 0.00 0.00 0.00 29 1017.7
20260506172047 24 151 1.6 8.0 0.00 0.00 0.00 29 1017.6
20260506171723 24 77 1.6 11.3 0.00 0.00 0.00 27 1017.6
20260506171357 23 38 3.2 11.3 0.00 0.00 0.00 27 1017.6
20260506171036 24 36 3.2 11.3 0.00 0.00 0.00 28 1017.6
20260506170719 24 113 3.2 11.3 0.00 0.00 0.00 27 1017.5
20260506165754 23 94 1.6 9.7 0.00 0.00 0.00 28 1017.5
20260506165440 23 165 1.6 9.7 0.00 0.00 0.00 28 1017.6
20260506165118 23 75 1.6 8.0 0.00 0.00 0.00 31 1017.5
20260506164500 23 113 1.6 8.0 0.00 0.00 0.00 28 1017.5
20260506163842 23 259 3.2 8.0 0.00 0.00 0.00 27 1017.5
20260506163526 23 300 1.6 8.0 0.00 0.00 0.00 28 1017.5
20260506163210 23 21 1.6 8.0 0.00 0.00 0.00 28 1017.4
20260506162851 22 69 1.6 8.0 0.00 0.00 0.00 30 1017.4
20260506162536 22 80 1.6 8.0 0.00 0.00 0.00 29 1017.4
20260506162218 22 42 1.6 4.8 0.00 0.00 0.00 30 1017.4
20260506160700 22 355 0.0 8.0 0.00 0.00 0.00 32 1017.4
20260506160335 21 53 0.0 8.0 0.00 0.00 0.00 31 1017.4
20260506160012 21 17 0.0 8.0 0.00 0.00 0.00 30 1017.4
20260506155650 21 129 1.6 8.0 0.00 0.00 0.00 29 1017.4
20260506154729 21 30 0.0 4.8 0.00 0.00 0.00 30 1017.4
20260506153813 20 62 0.0 3.2 0.00 0.00 0.00 31 1017.3
20260506153447 20 58 0.0 4.8 0.00 0.00 0.00 31 1017.2
20260506153130 20 87 1.6 4.8 0.00 0.00 0.00 31 1017.2
20260506152813 20 5 1.6 4.8 0.00 0.00 0.00 30 1017.1
20260506152458 20 0 1.6 4.8 0.00 0.00 0.00 31 1017.1
20260506152139 20 74 1.6 4.8 0.00 0.00 0.00 32 1017.1
20260506151813 20 95 0.0 4.8 0.00 0.00 0.00 34 1017.1
20260506151456 20 105 0.0 4.8 0.00 0.00 0.00 34 1017.1
20260506150839 18 57 1.6 4.8 0.00 0.00 0.00 35 1017.1
20260506150516 18 0 1.6 4.8 0.00 0.00 0.00 35 1017.2
20260506150151 18 0 1.6 4.8 0.00 0.00 0.00 36 1017.1
20260506145829 18 0 1.6 4.8 0.00 0.00 0.00 38 1017.1
20260506145509 17 0 1.6 4.8 0.00 0.00 0.00 38 1017.0
20260506145150 16 0 1.6 4.8 0.00 0.00 0.00 38 1017.1
20260506144831 16 0 1.6 4.8 0.00 0.00 0.00 40 1017.1
20260506144507 16 0 1.6 4.8 0.00 0.00 0.00 41 1017.1
20260506144150 16 0 0.0 4.8 0.00 0.00 0.00 41 1017.0
20260506143828 15 0 0.0 4.8 0.00 0.00 0.00 42 1017.0
20260506143505 15 0 1.6 6.4 0.00 0.00 0.00 42 1016.9
20260506143147 15 0 1.6 6.4 0.00 0.00 0.00 43 1016.8
20260506142829 14 0 1.6 6.4 0.00 0.00 0.00 44 1016.7
20260506142513 14 0 1.6 6.4 0.00 0.00 0.00 44 1016.8
20260506142151 14 0 1.6 6.4 0.00 0.00 0.00 46 1016.8
20260506141832 13 0 1.6 6.4 0.00 0.00 0.00 46 1016.8
20260506141507 13 0 1.6 3.2 0.00 0.00 0.00 47 1016.7
20260506141150 13 0 0.0 3.2 0.00 0.00 0.00 48 1016.8
20260506140824 13 0 0.0 1.6 0.00 0.00 0.00 48 1016.7
20260506140506 13 0 0.0 1.6 0.00 0.00 0.00 50 1016.5
20260506140147 13 0 0.0 0.0 0.00 0.00 0.00 50 1016.6
20260506135825 12 0 0.0 3.2 0.00 0.00 0.00 51 1016.6
20260506135502 12 0 0.0 1.6 0.00 0.00 0.00 51 1016.4
20260506135140 12 0 0.0 1.6 0.00 0.00 0.00 52 1016.5
20260506134516 12 0 0.0 0.0 0.00 0.00 0.00 53 1016.3
20260506133859 12 0 0.0 0.0 0.00 0.00 0.00 52 1016.2
20260506133541 12 0 0.0 0.0 0.00 0.00 0.00 52 1016.2
20260506133223 12 0 0.0 0.0 0.00 0.00 0.00 51 1016.2
20260506132906 12 0 0.0 0.0 0.00 0.00 0.00 51 1016.1
20260506132543 12 0 0.0 0.0 0.00 0.00 0.00 52 1016.1
20260506132219 12 0 0.0 0.0 0.00 0.00 0.00 52 1016.0
20260506131857 12 0 0.0 1.6 0.00 0.00 0.00 52 1015.9
20260506131537 12 0 0.0 1.6 0.00 0.00 0.00 51 1015.9
20260506131220 12 36 0.0 1.6 0.00 0.00 0.00 50 1015.9
20260506130901 12 270 0.0 0.0 0.00 0.00 0.00 49 1015.9
20260506130246 12 270 0.0 0.0 0.00 0.00 0.00 49 1015.8
20260506125921 12 270 0.0 0.0 0.00 0.00 0.00 48 1015.8
20260506125004 12 270 0.0 0.0 0.00 0.00 0.00 48 1015.6
20260506124641 12 270 0.0 0.0 0.00 0.00 0.00 48 1015.6
20260506124325 12 269 0.0 3.2 0.00 0.00 0.00 48 1015.5
20260506124002 12 269 0.0 3.2 0.00 0.00 0.00 48 1015.4
20260506123646 13 269 0.0 1.6 0.00 0.00 0.00 48 1015.3
20260506123326 13 269 0.0 1.6 0.00 0.00 0.00 48 1015.3
20260506123008 13 269 0.0 0.0 0.00 0.00 0.00 48 1015.2
20260506122649 13 269 0.0 1.6 0.00 0.00 0.00 48 1015.3
20260506122329 13 286 0.0 0.0 0.00 0.00 0.00 48 1015.2
20260506122014 13 286 0.0 0.0 0.00 0.00 0.00 48 1015.2
20260506121355 13 286 0.0 3.2 0.00 0.00 0.00 47 1015.1
20260506121036 13 246 0.0 3.2 0.00 0.00 0.00 47 1015.0
20260506120718 13 217 0.0 3.2 0.00 0.00 0.00 47 1015.0
20260506120404 13 269 0.0 1.6 0.00 0.00 0.00 47 1015.0
20260506120048 13 332 0.0 3.2 0.00 0.00 0.00 47 1015.0
20260506115422 13 332 0.0 3.2 0.00 0.00 0.00 47 1015.0
20260506115057 13 180 0.0 1.6 0.00 0.00 0.00 47 1014.9
20260506114738 13 250 0.0 1.6 0.00 0.00 0.00 47 1015.0
20260506114422 13 178 0.0 1.6 0.00 0.00 0.00 47 1014.9
20260506114101 13 178 0.0 1.6 0.00 0.00 0.00 46 1014.7
20260506113746 13 311 0.0 0.0 0.00 0.00 0.00 46 1014.8
20260506113429 13 311 0.0 0.0 0.00 0.00 0.00 46 1014.7
20260506112805 13 311 0.0 0.0 0.00 0.00 0.00 45 1014.6
20260506112143 13 316 0.0 1.6 0.00 0.00 0.00 45 1014.7
20260506110922 13 317 0.0 1.6 0.00 0.00 0.00 45 1014.7
20260506110606 13 222 0.0 0.0 0.00 0.00 0.00 44 1014.7
20260506110244 13 222 0.0 3.2 0.00 0.00 0.00 44 1014.6
20260506105630 13 219 0.0 3.2 0.00 0.00 0.00 44 1014.5
20260506105305 13 212 0.0 3.2 0.00 0.00 0.00 44 1014.5
20260506104949 13 216 0.0 3.2 0.00 0.00 0.00 44 1014.5
20260506104630 13 215 0.0 3.2 0.00 0.00 0.00 44 1014.4
20260506104306 13 228 0.0 3.2 0.00 0.00 0.00 44 1014.4
20260506103948 13 236 0.0 3.2 0.00 0.00 0.00 44 1014.3
20260506103625 13 173 0.0 3.2 0.00 0.00 0.00 44 1014.2
20260506103307 13 307 0.0 3.2 0.00 0.00 0.00 44 1014.1
20260506102640 13 226 0.0 1.6 0.00 0.00 0.00 44 1014.1
20260506102317 13 226 0.0 1.6 0.00 0.00 0.00 44 1014.1
20260506101954 13 226 0.0 1.6 0.00 0.00 0.00 44 1014.1
20260506101632 13 226 0.0 0.0 0.00 0.00 0.00 44 1014.1
20260506101314 13 226 0.0 0.0 0.00 0.00 0.00 44 1014.1
20260506100957 13 226 0.0 0.0 0.00 0.00 0.00 44 1014.0
20260506100638 14 226 0.0 0.0 0.00 0.00 0.00 44 1014.0
20260506100319 14 225 0.0 0.0 0.00 0.00 0.00 44 1013.9
20260506100003 14 225 0.0 0.0 0.00 0.00 0.00 43 1013.8
20260506095645 14 225 0.0 0.0 0.00 0.00 0.00 43 1013.8
20260506095328 14 225 0.0 0.0 0.00 0.00 0.00 43 1013.7
20260506095012 14 225 0.0 1.6 0.00 0.00 0.00 43 1013.7
20260506094352 14 302 0.0 0.0 0.00 0.00 0.00 43 1013.6
20260506094026 14 302 0.0 0.0 0.00 0.00 0.00 43 1013.6
20260506093705 14 302 0.0 0.0 0.00 0.00 0.00 42 1013.6
20260506093345 15 303 0.0 0.0 0.00 0.00 0.00 42 1013.7
20260506092723 15 302 0.0 0.0 0.00 0.00 0.00 41 1013.7
20260506092402 15 241 0.0 0.0 0.00 0.00 0.00 41 1013.6
20260506092039 15 241 0.0 1.6 0.00 0.00 0.00 41 1013.6
20260506091719 15 241 0.0 1.6 0.00 0.00 0.00 40 1013.6
20260506091354 15 241 0.0 1.6 0.00 0.00 0.00 40 1013.6
20260506091033 15 241 0.0 0.0 0.00 0.00 0.00 40 1013.6
20260506090707 15 241 0.0 3.2 0.00 0.00 0.00 40 1013.6
20260506090342 15 240 0.0 3.2 0.00 0.00 0.00 39 1013.6
20260506085716 15 240 0.0 0.0 0.00 0.00 0.00 39 1013.5
20260506085401 15 240 0.0 1.6 0.00 0.00 0.00 39 1013.6
20260506085040 15 237 0.0 1.6 0.00 0.00 0.00 39 1013.6
20260506084424 15 180 0.0 0.0 0.00 0.00 0.00 39 1013.5
20260506084104 15 178 0.0 3.2 0.00 0.00 0.00 39 1013.5
20260506083745 15 213 0.0 4.8 0.00 0.00 0.00 39 1013.4
20260506083431 15 206 0.0 4.8 0.00 0.00 0.00 39 1013.4
20260506083112 16 170 0.0 4.8 0.00 0.00 0.00 39 1013.5
20260506082752 16 170 0.0 4.8 0.00 0.00 0.00 38 1013.5
20260506082435 16 170 0.0 4.8 0.00 0.00 0.00 38 1013.4
20260506081810 16 161 0.0 3.2 0.00 0.00 0.00 37 1013.3
20260506081147 16 267 0.0 0.0 0.00 0.00 0.00 37 1013.3
20260506080824 16 0 0.0 0.0 0.00 0.00 0.00 36 1013.5
20260506080158 16 0 0.0 3.2 0.00 0.00 0.00 36 1013.4
20260506073510 17 0 0.0 3.2 0.00 0.00 0.00 34 1013.3
20260506073145 17 0 0.0 3.2 0.00 0.00 0.00 34 1013.3
20260506072825 17 0 0.0 3.2 0.00 0.00 0.00 33 1013.3
20260506072504 17 0 0.0 3.2 0.00 0.00 0.00 33 1013.3
20260506072139 17 0 0.0 6.4 0.00 0.00 0.00 33 1013.3
20260506071519 18 0 1.6 6.4 0.00 0.00 0.00 33 1013.3
20260506071157 18 0 1.6 6.4 0.00 0.00 0.00 33 1013.3
20260506070532 18 0 1.6 6.4 0.00 0.00 0.00 33 1013.3
20260506070209 18 0 0.0 4.8 0.00 0.00 0.00 33 1013.3
20260506062305 18 0 6.4 16.1 0.00 0.00 0.00 32 1012.9
20260506061648 18 0 6.4 14.5 0.00 0.00 0.00 32 1012.8
20260506061325 19 0 6.4 12.9 0.00 0.00 0.00 32 1012.7
20260506061009 19 0 4.8 12.9 0.00 0.00 0.00 31 1012.8
20260506060653 19 0 4.8 16.1 0.00 0.00 0.00 31 1012.6
20260506060336 19 0 4.8 16.1 0.00 0.00 0.00 31 1012.6
20260506051144 20 0 8.0 20.9 0.00 0.00 0.00 29 1012.2
20260506050524 20 0 8.0 22.5 0.00 0.00 0.00 29 1012.1
20260506050206 20 0 8.0 22.5 0.00 0.00 0.00 29 1012.1
20260506044933 20 0 9.7 27.4 0.00 0.00 0.00 30 1012.1
20260506044610 20 0 9.7 27.4 0.00 0.00 0.00 30 1012.1
20260506044255 20 0 9.7 27.4 0.00 0.00 0.00 29 1012.0
20260506043936 20 0 9.7 25.7 0.00 0.00 0.00 30 1011.9
20260506043619 20 0 8.0 25.7 0.00 0.00 0.00 30 1011.9
20260506043302 20 0 8.0 25.7 0.00 0.00 0.00 30 1012.0
20260506042941 20 0 6.4 16.1 0.00 0.00 0.00 30 1011.9
20260506042620 20 0 6.4 16.1 0.00 0.00 0.00 30 1011.9
20260506042256 20 0 6.4 16.1 0.00 0.00 0.00 30 1011.8
20260506041933 20 0 6.4 16.1 0.00 0.00 0.00 30 1011.8
20260506041611 20 0 6.4 16.1 0.00 0.00 0.00 29 1011.8
20260506041256 20 0 4.8 16.1 0.00 0.00 0.00 29 1011.7
20260506040939 21 0 4.8 14.5 0.00 0.00 0.00 29 1011.7
20260506040616 21 0 4.8 14.5 0.00 0.00 0.00 29 1011.6
20260506040256 21 0 8.0 17.7 0.00 0.00 0.00 29 1011.5
20260506035933 21 0 6.4 17.7 0.00 0.00 0.00 29 1011.5
20260506035618 21 0 6.4 17.7 0.00 0.00 0.00 29 1011.4
20260506035301 21 0 6.4 17.7 0.00 0.00 0.00 29 1011.4
20260506034937 21 0 8.0 17.7 0.00 0.00 0.00 29 1011.3
20260506034619 21 0 6.4 17.7 0.00 0.00 0.00 29 1011.3
20260506034257 21 0 6.4 17.7 0.00 0.00 0.00 29 1011.1
20260506033631 21 0 4.8 17.7 0.00 0.00 0.00 29 1011.2
20260506033305 21 0 4.8 17.7 0.00 0.00 0.00 29 1011.0
20260506032946 21 0 6.4 17.7 0.00 0.00 0.00 29 1010.9
20260506032622 21 0 4.8 17.7 0.00 0.00 0.00 29 1010.9
20260506032305 21 0 4.8 12.9 0.00 0.00 0.00 28 1010.8
20260506031937 21 0 4.8 19.3 0.00 0.00 0.00 28 1010.7
20260506031623 21 0 4.8 19.3 0.00 0.00 0.00 28 1010.7
20260506031300 21 0 6.4 19.3 0.00 0.00 0.00 28 1010.6
20260506030944 21 0 8.0 19.3 0.00 0.00 0.00 28 1010.6
20260506030627 21 0 8.0 19.3 0.00 0.00 0.00 28 1010.5
20260506030310 21 0 6.4 19.3 0.00 0.00 0.00 28 1010.4
20260506025950 21 0 6.4 14.5 0.00 0.00 0.00 28 1010.4
20260506025635 22 0 6.4 14.5 0.00 0.00 0.00 28 1010.3
20260506025315 22 0 6.4 14.5 0.00 0.00 0.00 28 1010.4
20260506024953 22 0 4.8 14.5 0.00 0.00 0.00 27 1010.3
20260506024637 22 0 4.8 12.9 0.00 0.00 0.00 26 1010.2
20260506024312 22 0 4.8 14.5 0.00 0.00 0.00 26 1010.2
20260506023948 22 0 4.8 14.5 0.00 0.00 0.00 26 1010.1
20260506023632 22 0 4.8 14.5 0.00 0.00 0.00 25 1010.1
20260506023312 22 0 4.8 14.5 0.00 0.00 0.00 26 1010.1
20260506022950 22 0 4.8 14.5 0.00 0.00 0.00 25 1010.0
20260506022331 22 0 4.8 12.9 0.00 0.00 0.00 25 1009.9
20260506022015 22 0 6.4 16.1 0.00 0.00 0.00 25 1010.0
20260506021658 22 0 4.8 16.1 0.00 0.00 0.00 25 1009.9
20260506021333 22 0 4.8 16.1 0.00 0.00 0.00 24 1009.9
20260506020716 22 0 4.8 16.1 0.00 0.00 0.00 24 1009.8
20260506020359 22 0 6.4 16.1 0.00 0.00 0.00 24 1009.8
20260506020037 22 0 4.8 14.5 0.00 0.00 0.00 24 1009.8
20260506015712 22 0 4.8 12.9 0.00 0.00 0.00 24 1009.8
20260506015052 22 0 4.8 12.9 0.00 0.00 0.00 24 1009.7
20260506014727 22 0 4.8 17.7 0.00 0.00 0.00 24 1009.7
20260506014410 22 0 4.8 17.7 0.00 0.00 0.00 24 1009.8
20260506014048 22 0 4.8 17.7 0.00 0.00 0.00 23 1009.7
20260506013731 22 0 6.4 17.7 0.00 0.00 0.00 24 1009.8
20260506013414 22 0 6.4 17.7 0.00 0.00 0.00 23 1009.7
20260506012456 22 212 4.8 14.5 0.00 0.00 0.00 23 1009.7
20260506011536 23 176 6.4 14.5 0.00 0.00 0.00 22 1009.6
20260506011216 23 171 6.4 14.5 0.00 0.00 0.00 22 1009.6
20260506010855 23 252 6.4 14.5 0.00 0.00 0.00 22 1009.6
20260506010529 23 156 6.4 14.5 0.00 0.00 0.00 22 1009.6
20260506010215 23 178 6.4 17.7 0.00 0.00 0.00 21 1009.6
20260506005859 23 148 6.4 17.7 0.00 0.00 0.00 21 1009.6
20260506005242 23 209 6.4 19.3 0.00 0.00 0.00 21 1009.6
20260506004628 23 181 4.8 19.3 0.00 0.00 0.00 21 1009.5
20260506003706 23 198 4.8 19.3 0.00 0.00 0.00 21 1009.5
20260506003352 23 173 1.6 12.9 0.00 0.00 0.00 21 1009.4
20260506003029 23 202 1.6 11.3 0.00 0.00 0.00 20 1009.5
20260506002704 23 34 1.6 11.3 0.00 0.00 0.00 22 1009.5
20260506002339 23 71 3.2 17.7 0.00 0.00 0.00 22 1009.5
20260506002020 23 106 6.4 17.7 0.00 0.00 0.00 20 1009.4
20260506001704 23 146 8.0 17.7 0.00 0.00 0.00 21 1009.5
20260506001344 23 163 8.0 17.7 0.00 0.00 0.00 20 1009.5
20260506001018 23 169 6.4 17.7 0.00 0.00 0.00 20 1009.5
20260506000656 23 165 6.4 17.7 0.00 0.00 0.00 20 1009.5
20260506000331 24 147 4.8 16.1 0.00 0.00 0.00 19 1009.4
20260506000004 24 209 3.2 12.9 0.00 0.00 0.00 20 1009.3
20260505235641 24 251 3.2 12.9 0.00 0.00 0.00 20 1009.3
20260505235319 24 267 3.2 19.3 0.00 0.00 0.00 21 1009.3
20260505235002 23 254 6.4 19.3 0.00 0.00 0.00 20 1009.3
20260505234641 24 211 6.4 19.3 0.00 0.00 0.00 20 1009.2
20260505234316 23 171 6.4 19.3 0.00 0.00 0.00 20 1009.3
20260505234002 23 239 3.2 19.3 0.00 0.00 0.00 20 1009.2
20260505233644 23 163 3.2 19.3 0.00 0.00 0.00 20 1009.3
20260505233319 23 126 1.6 11.3 0.00 0.00 0.00 20 1009.3
20260505233004 23 207 3.2 11.3 0.00 0.00 0.00 20 1009.4
20260505232046 23 242 4.8 19.3 0.00 0.00 0.00 21 1009.3
20260505231727 23 180 6.4 19.3 0.00 0.00 0.00 20 1009.5
20260505231407 24 227 8.0 19.3 0.00 0.00 0.00 21 1009.5
20260505231042 24 149 9.7 19.3 0.00 0.00 0.00 22 1009.5
20260505230719 23 199 4.8 19.3 0.00 0.00 0.00 20 1009.5
20260505230400 24 165 4.8 17.7 0.00 0.00 0.00 19 1009.5
20260505230033 24 138 1.6 11.3 0.00 0.00 0.00 20 1009.5
20260505225717 25 34 3.2 16.1 0.00 0.00 0.00 19 1009.6
20260505225353 25 34 4.8 16.1 0.00 0.00 0.00 20 1009.7
20260505225038 25 339 4.8 16.1 0.00 0.00 0.00 19 1009.7
20260505224712 25 345 6.4 16.1 0.00 0.00 0.00 21 1009.8
20260505224349 25 86 4.8 16.1 0.00 0.00 0.00 22 1009.8
20260505224031 25 121 6.4 16.1 0.00 0.00 0.00 23 1009.9
20260505223708 24 107 3.2 12.9 0.00 0.00 0.00 21 1009.9
20260505223350 24 78 4.8 25.7 0.00 0.00 0.00 20 1009.9
20260505223029 23 128 4.8 25.7 0.00 0.00 0.00 23 1010.0
20260505222709 24 190 6.4 25.7 0.00 0.00 0.00 23 1010.0
20260505222046 24 169 11.3 25.7 0.00 0.00 0.00 23 1010.1
20260505221730 24 154 11.3 25.7 0.00 0.00 0.00 20 1010.1
20260505221408 24 118 6.4 19.3 0.00 0.00 0.00 21 1010.1
20260505221048 24 195 4.8 17.7 0.00 0.00 0.00 22 1010.1
20260505220727 24 209 3.2 16.1 0.00 0.00 0.00 20 1010.2
20260505220410 24 43 3.2 12.9 0.00 0.00 0.00 20 1010.3
20260505220055 24 106 1.6 12.9 0.00 0.00 0.00 23 1010.3
20260505215433 25 74 3.2 11.3 0.00 0.00 0.00 21 1010.5
20260505215116 25 66 4.8 11.3 0.00 0.00 0.00 24 1010.4
20260505214451 24 19 4.8 20.9 0.00 0.00 0.00 21 1010.5
20260505214129 24 71 6.4 20.9 0.00 0.00 0.00 22 1010.5
20260505213807 24 116 8.0 20.9 0.00 0.00 0.00 24 1010.5
20260505213448 25 58 9.7 20.9 0.00 0.00 0.00 22 1010.6
20260505213128 25 114 9.7 20.9 0.00 0.00 0.00 25 1010.7
20260505212810 25 117 8.0 17.7 0.00 0.00 0.00 26 1010.6
20260505212452 24 101 8.0 17.7 0.00 0.00 0.00 25 1010.7
20260505211834 24 103 6.4 24.1 0.00 0.00 0.00 24 1010.9
20260505211515 24 109 6.4 24.1 0.00 0.00 0.00 22 1010.9
20260505210852 25 106 8.0 24.1 0.00 0.00 0.00 25 1010.9
20260505205936 23 113 4.8 17.7 0.00 0.00 0.00 25 1011.0
20260505205621 23 234 8.0 20.9 0.00 0.00 0.00 24 1011.0
20260505205307 23 151 6.4 20.9 0.00 0.00 0.00 24 1011.0
20260505204949 23 148 6.4 20.9 0.00 0.00 0.00 27 1011.0
20260505204625 23 214 6.4 20.9 0.00 0.00 0.00 24 1011.1
20260505204309 23 163 6.4 20.9 0.00 0.00 0.00 24 1011.0
20260505203951 24 217 6.4 20.9 0.00 0.00 0.00 22 1011.0
20260505203629 23 115 3.2 19.3 0.00 0.00 0.00 27 1010.9
20260505203305 23 71 4.8 19.3 0.00 0.00 0.00 25 1011.1
20260505202946 23 21 6.4 19.3 0.00 0.00 0.00 26 1011.0
20260505202625 23 100 6.4 19.3 0.00 0.00 0.00 24 1011.0
20260505202300 23 106 8.0 19.3 0.00 0.00 0.00 24 1011.1
20260505201942 23 138 4.8 17.7 0.00 0.00 0.00 23 1011.1
20260505201619 23 180 8.0 19.3 0.00 0.00 0.00 26 1011.1
20260505201301 23 175 9.7 19.3 0.00 0.00 0.00 24 1011.1
20260505200940 24 101 9.7 19.3 0.00 0.00 0.00 25 1011.2
20260505200614 23 101 8.0 22.5 0.00 0.00 0.00 26 1011.2
20260505200250 23 100 6.4 22.5 0.00 0.00 0.00 26 1011.2
20260505195325 23 137 9.7 22.5 0.00 0.00 0.00 26 1011.5
20260505195010 22 113 8.0 22.5 0.00 0.00 0.00 27 1011.5
20260505194654 22 136 6.4 17.7 0.00 0.00 0.00 28 1011.4
20260505194328 22 126 8.0 17.7 0.00 0.00 0.00 28 1011.5
20260505194011 22 78 9.7 20.9 0.00 0.00 0.00 25 1011.5
20260505193053 23 130 9.7 20.9 0.00 0.00 0.00 27 1011.6
20260505192735 23 144 8.0 20.9 0.00 0.00 0.00 26 1011.7
20260505192409 23 177 8.0 20.9 0.00 0.00 0.00 32 1011.7
20260505192043 22 144 6.4 20.9 0.00 0.00 0.00 29 1011.6
20260505191724 22 128 8.0 20.9 0.00 0.00 0.00 29 1011.6
20260505191404 22 125 8.0 20.9 0.00 0.00 0.00 28 1011.6
20260505191049 22 92 9.7 20.9 0.00 0.00 0.00 30 1011.6
20260505190734 22 140 9.7 20.9 0.00 0.00 0.00 28 1011.7